JRR455 LYTV-EPSY

Flight info

Callsign JRR455
Flight time 2h 0m
Altitude 39000
Route NIK DCT PARAK DCT PODAN M857 VENES/N0444F400 N5 OTMAX Y566 UDROV
Aircraft B738/M-SDGIRWY/S

Departure

Time 2026-04-25 19:09
Airport Tivat Airport (LYTV)

Arrival

Time 2026-04-25 21:09
Airport Olsztyn-Mazury Airport (EPSY)
Time Latitude Longitude Altitude Speed Heading
2026-04-25 18:45 42.41078 18.71842 24 ft 0 kts 163°
2026-04-25 19:06 42.41072 18.71841 17 ft 1 kts 201°
2026-04-25 19:06 42.41072 18.71802 17 ft 10 kts 301°
2026-04-25 19:07 42.41204 18.71639 17 ft 13 kts 319°
2026-04-25 19:07 42.41273 18.71557 16 ft 13 kts 319°
2026-04-25 19:08 42.41336 18.71372 15 ft 12 kts 214°
2026-04-25 19:08 42.41285 18.71368 15 ft 6 kts 138°
2026-04-25 19:09 42.39802 18.73111 129 ft 162 kts 139°
2026-04-25 19:09 42.39521 18.73440 339 ft 161 kts 139°
2026-04-25 19:09 42.36541 18.75037 1752 ft 197 kts 166°
2026-04-25 19:10 42.35242 18.75532 2805 ft 198 kts 162°
2026-04-25 19:10 42.33953 18.76090 3845 ft 200 kts 164°
2026-04-25 19:10 42.32539 18.76176 4608 ft 216 kts 192°
2026-04-25 19:10 42.31158 18.75249 5340 ft 235 kts 226°
2026-04-25 19:11 42.30345 18.73297 6132 ft 249 kts 255°
2026-04-25 19:11 42.30209 18.70944 6900 ft 264 kts 279°
2026-04-25 19:11 42.30757 18.68563 7881 ft 269 kts 298°
2026-04-25 19:11 42.31768 18.66466 8908 ft 271 kts 311°
2026-04-25 19:12 42.33086 18.64660 9823 ft 276 kts 323°
2026-04-25 19:12 42.34799 18.63492 10654 ft 283 kts 346°
2026-04-25 19:12 42.36756 18.63262 11555 ft 288 kts
2026-04-25 19:12 42.38701 18.63753 12428 ft 293 kts 17°
2026-04-25 19:13 42.40511 18.65051 13287 ft 300 kts 38°
2026-04-25 19:13 42.41949 18.67054 14100 ft 306 kts 49°
2026-04-25 19:13 42.43324 18.69278 14902 ft 309 kts 42°
2026-04-25 19:13 42.45039 18.70990 15693 ft 310 kts 27°
2026-04-25 19:14 42.46973 18.72275 16484 ft 312 kts 22°
2026-04-25 19:14 42.47617 18.72651 16722 ft 313 kts 21°
2026-04-25 19:14 42.50973 18.74559 17926 ft 319 kts 21°
2026-04-25 19:14 42.53003 18.75762 18597 ft 322 kts 22°
2026-04-25 19:15 42.55061 18.77027 19250 ft 326 kts 22°
2026-04-25 19:15 42.57110 18.78310 19900 ft 329 kts 23°
2026-04-25 19:15 42.59190 18.79623 20522 ft 333 kts 23°
2026-04-25 19:15 42.61298 18.80977 21119 ft 337 kts 24°
2026-04-25 19:16 42.63388 18.82397 21703 ft 340 kts 25°
2026-04-25 19:16 42.65490 18.83867 22277 ft 343 kts 25°
2026-04-25 19:16 42.67632 18.85376 22819 ft 347 kts 25°
2026-04-25 19:16 42.69772 18.86883 23342 ft 351 kts 25°
2026-04-25 19:17 42.71926 18.88394 23861 ft 354 kts 25°
2026-04-25 19:17 42.74133 18.89939 24370 ft 357 kts 24°
2026-04-25 19:17 42.76344 18.91424 24879 ft 359 kts 22°
2026-04-25 19:17 42.78670 18.92705 25321 ft 361 kts 17°
2026-04-25 19:18 42.81114 18.93708 25453 ft 372 kts 13°
2026-04-25 19:18 42.83641 18.94567 25576 ft 384 kts 11°
2026-04-25 19:18 42.86296 18.95398 25664 ft 397 kts 11°
2026-04-25 19:18 42.89033 18.96239 25746 ft 410 kts 11°
2026-04-25 19:19 42.91870 18.97118 25828 ft 423 kts 11°
2026-04-25 19:19 42.94765 18.98031 26041 ft 432 kts 11°
2026-04-25 19:19 42.97690 18.98967 26444 ft 437 kts 11°
2026-04-25 19:19 42.98676 18.99285 26583 ft 438 kts 11°
2026-04-25 19:20 43.03620 19.00894 27338 ft 444 kts 11°
2026-04-25 19:20 43.06641 19.01883 27801 ft 446 kts 11°
2026-04-25 19:20 43.09664 19.02876 28247 ft 449 kts 11°
2026-04-25 19:20 43.12709 19.03878 28705 ft 452 kts 11°
2026-04-25 19:21 43.15773 19.04888 29135 ft 455 kts 12°
2026-04-25 19:21 43.21981 19.06938 30006 ft 461 kts 12°
2026-04-25 19:21 43.25058 19.07956 30662 ft 457 kts 11°
2026-04-25 19:22 43.28169 19.08988 31306 ft 455 kts 11°
2026-04-25 19:22 43.31231 19.10005 31892 ft 452 kts 11°
2026-04-25 19:22 43.37284 19.12018 33006 ft 448 kts 11°
2026-04-25 19:23 43.40317 19.13027 33534 ft 446 kts 11°
2026-04-25 19:23 43.46299 19.15019 34546 ft 443 kts 11°
2026-04-25 19:23 43.49286 19.16015 35071 ft 441 kts 11°
2026-04-25 19:24 43.52280 19.17015 35595 ft 440 kts 11°
2026-04-25 19:24 43.55266 19.18012 36120 ft 438 kts 10°
2026-04-25 19:24 43.61138 19.19978 37122 ft 433 kts 10°
2026-04-25 19:25 43.66979 19.21935 37867 ft 432 kts 10°
2026-04-25 19:25 43.69912 19.22919 38203 ft 432 kts 10°
2026-04-25 19:25 43.72827 19.23897 38512 ft 432 kts 10°
2026-04-25 19:26 43.75782 19.24889 38819 ft 432 kts 10°
2026-04-25 19:26 43.78679 19.25864 39071 ft 433 kts 10°
2026-04-25 19:26 43.84561 19.27847 39071 ft 433 kts 10°
2026-04-25 19:27 43.88456 19.29164 39066 ft 430 kts 10°
2026-04-25 19:27 43.96201 19.31784 39071 ft 433 kts
2026-04-25 19:28 44.02058 19.33770 39066 ft 433 kts
2026-04-25 19:28 44.07911 19.35760 39065 ft 433 kts
2026-04-25 19:29 44.13763 19.37755 39063 ft 433 kts
2026-04-25 19:29 44.19601 19.39747 39058 ft 433 kts
2026-04-25 19:30 44.25462 19.41751 39059 ft 433 kts
2026-04-25 19:30 44.31276 19.43744 39053 ft 434 kts
2026-04-25 19:31 44.37140 19.45758 39048 ft 433 kts
2026-04-25 19:31 44.42998 19.47775 39041 ft 433 kts
2026-04-25 19:32 44.48844 19.49791 39031 ft 433 kts
2026-04-25 19:32 44.52742 19.51138 39035 ft 433 kts
2026-04-25 19:33 44.60513 19.53826 39029 ft 433 kts
2026-04-25 19:33 44.66387 19.55865 39020 ft 434 kts
2026-04-25 19:34 44.72215 19.57891 39017 ft 435 kts
2026-04-25 19:34 44.78107 19.59944 39000 ft 434 kts
2026-04-25 19:35 44.83951 19.61985 38996 ft 433 kts
2026-04-25 19:35 44.89809 19.64034 38999 ft 435 kts
2026-04-25 19:36 44.95697 19.66098 38992 ft 436 kts
2026-04-25 19:36 45.01564 19.68160 38990 ft 436 kts
2026-04-25 19:37 45.07450 19.70233 38988 ft 436 kts
2026-04-25 19:37 45.13328 19.72308 38988 ft 435 kts
2026-04-25 19:38 45.19185 19.74379 38989 ft 434 kts
2026-04-25 19:38 45.25057 19.76458 38989 ft 436 kts
2026-04-25 19:39 45.30957 19.78553 38989 ft 436 kts
2026-04-25 19:39 45.36807 19.80635 38989 ft 436 kts
2026-04-25 19:40 45.42700 19.82737 38988 ft 436 kts
2026-04-25 19:40 45.48574 19.84838 38989 ft 436 kts
2026-04-25 19:41 45.54435 19.86937 38988 ft 434 kts
2026-04-25 19:41 45.58336 19.88336 38989 ft 435 kts
2026-04-25 19:42 45.66155 19.91146 38989 ft 437 kts
2026-04-25 19:42 45.72042 19.93269 38988 ft 437 kts
2026-04-25 19:43 45.77947 19.95403 38989 ft 436 kts
2026-04-25 19:43 45.83801 19.97523 38990 ft 436 kts
2026-04-25 19:44 45.89707 19.99666 38989 ft 436 kts
2026-04-25 19:44 45.95587 20.01803 38990 ft 437 kts
2026-04-25 19:45 46.01439 20.03935 38989 ft 437 kts
2026-04-25 19:45 46.07326 20.06085 38989 ft 437 kts
2026-04-25 19:46 46.13222 20.08243 38985 ft 437 kts
2026-04-25 19:46 46.19079 20.10408 38981 ft 437 kts
2026-04-25 19:47 46.24970 20.12688 38976 ft 437 kts
2026-04-25 19:47 46.30793 20.14978 38977 ft 438 kts
2026-04-25 19:48 46.36670 20.17291 38973 ft 437 kts
2026-04-25 19:48 46.42529 20.19594 38970 ft 438 kts
2026-04-25 19:49 46.46462 20.21140 38962 ft 438 kts
2026-04-25 19:49 46.54256 20.24209 38969 ft 438 kts
2026-04-25 19:50 46.63077 20.27689 38970 ft 438 kts
2026-04-25 19:50 46.66014 20.28850 38798 ft 438 kts
2026-04-25 19:51 46.68912 20.30000 38976 ft 436 kts
2026-04-25 19:51 46.74783 20.32323 38964 ft 440 kts
2026-04-25 19:52 46.80673 20.34665 38957 ft 438 kts
2026-04-25 19:52 46.86556 20.37010 38955 ft 439 kts
2026-04-25 19:53 46.92416 20.39348 38957 ft 439 kts
2026-04-25 19:53 46.98300 20.41701 38958 ft 439 kts
2026-04-25 19:54 47.04186 20.44063 38950 ft 439 kts
2026-04-25 19:54 47.10055 20.46422 38953 ft 439 kts
2026-04-25 19:55 47.15987 20.48812 38945 ft 440 kts
2026-04-25 19:55 47.21866 20.51186 38939 ft 440 kts
2026-04-25 19:56 47.27738 20.53562 38945 ft 440 kts
2026-04-25 19:56 47.33660 20.55964 38936 ft 440 kts
2026-04-25 19:57 47.39518 20.58346 38934 ft 439 kts
2026-04-25 19:57 47.45416 20.60751 38928 ft 440 kts
2026-04-25 19:58 47.51321 20.63162 38920 ft 440 kts
2026-04-25 19:58 47.57202 20.65570 38932 ft 440 kts
2026-04-25 19:59 47.63120 20.67998 39042 ft 442 kts
2026-04-25 19:59 47.66090 20.69218 38912 ft 441 kts
2026-04-25 19:59 47.69017 20.70427 38931 ft 438 kts
2026-04-25 19:59 47.71932 20.71629 38768 ft 439 kts
2026-04-25 20:00 47.74883 20.72847 38914 ft 440 kts
2026-04-25 20:00 47.80788 20.75281 38911 ft 441 kts
2026-04-25 20:01 47.89605 20.78940 38901 ft 440 kts
2026-04-25 20:01 47.95523 20.81397 38899 ft 440 kts
2026-04-25 20:02 48.01418 20.83853 38892 ft 441 kts
2026-04-25 20:02 48.07330 20.86325 38766 ft 438 kts
2026-04-25 20:03 48.10262 20.87554 38898 ft 439 kts
2026-04-25 20:03 48.13231 20.88796 38892 ft 441 kts
2026-04-25 20:03 48.19118 20.91265 38889 ft 440 kts
2026-04-25 20:04 48.24991 20.93738 38890 ft 440 kts
2026-04-25 20:04 48.30891 20.96224 38884 ft 441 kts
2026-04-25 20:05 48.36804 20.98727 38889 ft 439 kts
2026-04-25 20:05 48.42688 21.01220 38887 ft 440 kts
2026-04-25 20:06 48.48567 21.03715 38885 ft 439 kts
2026-04-25 20:06 48.54477 21.06231 38884 ft 439 kts
2026-04-25 20:07 48.60354 21.08739 38881 ft 439 kts
2026-04-25 20:07 48.66248 21.11261 38880 ft 439 kts
2026-04-25 20:08 48.72116 21.13779 38887 ft 439 kts
2026-04-25 20:08 48.77985 21.16301 38885 ft 439 kts
2026-04-25 20:09 48.83845 21.18825 38887 ft 440 kts
2026-04-25 20:09 48.89696 21.21354 38890 ft 437 kts
2026-04-25 20:10 48.95552 21.23889 38883 ft 438 kts
2026-04-25 20:10 49.00452 21.26016 38889 ft 438 kts
2026-04-25 20:11 49.07258 21.28977 38887 ft 438 kts
2026-04-25 20:11 49.13108 21.31527 38889 ft 439 kts
2026-04-25 20:12 49.18919 21.34069 38892 ft 437 kts
2026-04-25 20:12 49.22787 21.35765 38894 ft 438 kts
2026-04-25 20:13 49.30586 21.39189 38889 ft 437 kts
2026-04-25 20:13 49.36442 21.41768 38884 ft 439 kts
2026-04-25 20:14 49.42334 21.44232 38879 ft 435 kts
2026-04-25 20:14 49.48227 21.45962 38887 ft 433 kts
2026-04-25 20:15 49.54160 21.47432 38879 ft 430 kts 360°
2026-04-25 20:15 49.60035 21.47591 38877 ft 421 kts 349°
2026-04-25 20:16 49.65839 21.46784 38874 ft 418 kts 347°
2026-04-25 20:16 49.71627 21.46016 38872 ft 419 kts 348°
2026-04-25 20:17 49.77476 21.45430 38869 ft 420 kts 349°
2026-04-25 20:17 49.83318 21.44954 38871 ft 420 kts 350°
2026-04-25 20:18 49.89155 21.44517 38869 ft 421 kts 350°
2026-04-25 20:18 49.94981 21.44092 38867 ft 420 kts 350°
2026-04-25 20:19 50.00832 21.43665 38864 ft 420 kts 350°
2026-04-25 20:19 50.06718 21.43235 38856 ft 420 kts 350°
2026-04-25 20:20 50.12522 21.42808 38857 ft 420 kts 350°
2026-04-25 20:20 50.18391 21.42376 38856 ft 419 kts 349°
2026-04-25 20:21 50.24205 21.41949 38843 ft 419 kts 349°
2026-04-25 20:21 50.30045 21.41511 38844 ft 422 kts 349°
2026-04-25 20:22 50.33964 21.41218 38833 ft 422 kts 349°
2026-04-25 20:22 50.41758 21.40641 38833 ft 420 kts 349°
2026-04-25 20:23 50.47571 21.40208 38833 ft 420 kts 349°
2026-04-25 20:23 50.53403 21.39772 38839 ft 420 kts 349°
2026-04-25 20:24 50.59237 21.39332 38823 ft 422 kts 349°
2026-04-25 20:24 50.65086 21.38891 38832 ft 421 kts 349°
2026-04-25 20:25 50.70924 21.38453 38821 ft 420 kts 349°
2026-04-25 20:25 50.76755 21.38012 38803 ft 420 kts 349°
2026-04-25 20:26 50.82568 21.37571 38812 ft 420 kts 349°
2026-04-25 20:26 50.88417 21.37134 38823 ft 420 kts 349°
2026-04-25 20:27 50.94255 21.36687 38827 ft 421 kts 349°
2026-04-25 20:27 51.00080 21.36239 38820 ft 420 kts 349°
2026-04-25 20:28 51.05965 21.35786 38808 ft 422 kts 349°
2026-04-25 20:28 51.11798 21.35337 38790 ft 420 kts 349°
2026-04-25 20:29 51.17607 21.34892 38788 ft 421 kts 349°
2026-04-25 20:29 51.23501 21.34435 38784 ft 423 kts 349°
2026-04-25 20:30 51.29372 21.33981 38786 ft 423 kts 349°
2026-04-25 20:30 51.34239 21.33602 38762 ft 424 kts 349°
2026-04-25 20:31 51.41150 21.33062 38789 ft 426 kts 349°
2026-04-25 20:31 51.47091 21.32600 38774 ft 425 kts 349°
2026-04-25 20:32 51.52954 21.32147 38758 ft 426 kts 349°
2026-04-25 20:32 51.58908 21.31674 38762 ft 429 kts 349°
2026-04-25 20:33 51.64834 21.31211 38759 ft 429 kts 349°
2026-04-25 20:33 51.68789 21.30899 38743 ft 430 kts 349°
2026-04-25 20:34 51.76766 21.30272 38757 ft 429 kts 349°
2026-04-25 20:34 51.82703 21.29804 38747 ft 430 kts 349°
2026-04-25 20:35 51.88687 21.29326 38749 ft 430 kts 349°
2026-04-25 20:35 51.94686 21.28849 38747 ft 431 kts 349°
2026-04-25 20:36 52.00676 21.28370 38727 ft 433 kts 349°
2026-04-25 20:36 52.06651 21.27892 38730 ft 433 kts 349°
2026-04-25 20:37 52.11670 21.27491 38722 ft 431 kts 350°
2026-04-25 20:37 52.17606 21.27024 38452 ft 421 kts 349°
2026-04-25 20:38 52.21443 21.26722 37896 ft 419 kts 349°
2026-04-25 20:38 52.24337 21.26489 37352 ft 419 kts 348°
2026-04-25 20:38 52.27233 21.26251 36762 ft 420 kts 348°
2026-04-25 20:38 52.30145 21.26011 36133 ft 421 kts 348°
2026-04-25 20:39 52.33095 21.25769 35499 ft 422 kts 347°
2026-04-25 20:39 52.36008 21.25528 34824 ft 425 kts 347°
2026-04-25 20:39 52.38950 21.25284 34147 ft 427 kts 347°
2026-04-25 20:39 52.39944 21.25202 33888 ft 428 kts 347°
2026-04-25 20:40 52.44899 21.24790 32609 ft 433 kts 346°
2026-04-25 20:40 52.46912 21.24622 32058 ft 435 kts 346°
2026-04-25 20:40 52.49919 21.24373 31236 ft 437 kts 346°
2026-04-25 20:40 52.53979 21.24038 30135 ft 439 kts 346°
2026-04-25 20:41 52.57027 21.23790 29301 ft 439 kts 345°
2026-04-25 20:41 52.60055 21.23550 28795 ft 431 kts 346°
2026-04-25 20:41 52.62015 21.23400 28467 ft 427 kts 346°
2026-04-25 20:41 52.65932 21.23100 27753 ft 419 kts 345°
2026-04-25 20:42 52.67873 21.22949 27385 ft 416 kts 345°
2026-04-25 20:42 52.71666 21.22647 26679 ft 409 kts 345°
2026-04-25 20:42 52.73548 21.22489 26334 ft 412 kts 345°
2026-04-25 20:42 52.76383 21.22242 25797 ft 412 kts 345°
2026-04-25 20:43 52.79238 21.22001 25255 ft 408 kts 345°
2026-04-25 20:43 52.82911 21.21578 24270 ft 391 kts 339°
2026-04-25 20:43 52.84663 21.20932 23541 ft 379 kts 332°
2026-04-25 20:43 52.87857 21.19015 22215 ft 369 kts 326°
2026-04-25 20:44 52.90204 21.17391 21285 ft 365 kts 326°
2026-04-25 20:44 52.92513 21.15825 20607 ft 355 kts 327°
2026-04-25 20:44 52.94034 21.14849 20328 ft 348 kts 327°
2026-04-25 20:44 52.96302 21.13444 19864 ft 356 kts 328°
2026-04-25 20:45 52.99451 21.11572 19152 ft 358 kts 329°
2026-04-25 20:45 53.01012 21.10692 18813 ft 350 kts 329°
2026-04-25 20:45 53.04009 21.09045 18189 ft 345 kts 330°
2026-04-25 20:45 53.06306 21.07761 17705 ft 351 kts 330°
2026-04-25 20:46 53.07845 21.06899 17363 ft 353 kts 331°
2026-04-25 20:46 53.10889 21.05218 16967 ft 346 kts 331°
2026-04-25 20:46 53.12434 21.04367 16792 ft 344 kts 332°
2026-04-25 20:46 53.14671 21.03147 16415 ft 334 kts 332°
2026-04-25 20:47 53.16494 21.02137 16028 ft 345 kts 332°
2026-04-25 20:47 53.18763 21.00868 15506 ft 341 kts 332°
2026-04-25 20:47 53.20961 20.99658 14976 ft 329 kts 333°
2026-04-25 20:47 53.23878 20.98035 14274 ft 337 kts 333°
2026-04-25 20:48 53.25375 20.97195 13895 ft 336 kts 333°
2026-04-25 20:48 53.28238 20.95608 13192 ft 322 kts 333°
2026-04-25 20:48 53.29678 20.94808 12843 ft 328 kts 334°
2026-04-25 20:48 53.31818 20.93607 12293 ft 327 kts 334°
2026-04-25 20:49 53.33939 20.92428 11770 ft 316 kts 334°
2026-04-25 20:49 53.36022 20.91265 11268 ft 319 kts 335°
2026-04-25 20:49 53.38134 20.90076 10757 ft 321 kts 335°
2026-04-25 20:49 53.40877 20.88549 10331 ft 298 kts 335°
2026-04-25 20:50 53.42148 20.87848 10230 ft 285 kts 335°
2026-04-25 20:50 53.44052 20.86781 10141 ft 291 kts 335°
2026-04-25 20:50 53.45951 20.85705 10017 ft 281 kts 334°
2026-04-25 20:50 53.47717 20.84684 9872 ft 260 kts 329°
2026-04-25 20:51 53.49376 20.82191 9382 ft 233 kts 293°
2026-04-25 20:51 53.49682 20.80460 9009 ft 232 kts 275°
2026-04-25 20:51 53.49410 20.77835 8462 ft 238 kts 248°
2026-04-25 20:51 53.48308 20.75718 8015 ft 250 kts 220°
2026-04-25 20:52 53.45994 20.74657 7469 ft 272 kts 189°
2026-04-25 20:52 53.45374 20.74666 7333 ft 273 kts 186°
2026-04-25 20:52 53.42844 20.74924 6951 ft 272 kts 185°
2026-04-25 20:52 53.40979 20.75140 6851 ft 264 kts 184°
2026-04-25 20:53 53.39190 20.75610 6604 ft 262 kts 168°
2026-04-25 20:53 53.37147 20.77496 6407 ft 244 kts 152°
2026-04-25 20:53 53.36268 20.78661 6238 ft 241 kts 141°
2026-04-25 20:53 53.35090 20.81830 5636 ft 248 kts 102°
2026-04-25 20:54 53.35028 20.83698 5319 ft 242 kts 75°
2026-04-25 20:54 53.35724 20.86107 4815 ft 225 kts 37°
2026-04-25 20:54 53.36943 20.87632 4163 ft 218 kts 17°
2026-04-25 20:54 53.38354 20.88391 3493 ft 211 kts
2026-04-25 20:55 53.39760 20.88974 2993 ft 212 kts 10°
2026-04-25 20:55 53.41122 20.89680 2754 ft 195 kts 356°
2026-04-25 20:55 53.42325 20.89088 2541 ft 174 kts 311°
2026-04-25 20:55 53.42671 20.86697 2244 ft 172 kts 254°
2026-04-25 20:56 53.42144 20.85615 2176 ft 193 kts 220°
2026-04-25 20:56 53.40782 20.85082 2040 ft 219 kts 176°
2026-04-25 20:56 53.39422 20.86281 1923 ft 225 kts 136°
2026-04-25 20:56 53.38938 20.89365 1722 ft 199 kts 71°
2026-04-25 20:57 53.39357 20.90544 1682 ft 167 kts 36°
2026-04-25 20:57 53.40311 20.91021 1574 ft 131 kts 349°
2026-04-25 20:57 53.41206 20.90897 1422 ft 137 kts 352°
2026-04-25 20:57 53.42199 20.90934 1318 ft 150 kts 355°
2026-04-25 20:58 53.43244 20.91046 1294 ft 143 kts
2026-04-25 20:58 53.44180 20.91623 1085 ft 147 kts 14°
2026-04-25 20:58 53.45175 20.92122 1008 ft 146 kts 12°
2026-04-25 20:58 53.46126 20.92634 729 ft 142 kts 14°
2026-04-25 20:59 53.47112 20.93164 521 ft 155 kts 16°
2026-04-25 20:59 53.48076 20.93724 646 ft 142 kts 19°
2026-04-25 20:59 53.49010 20.94402 1106 ft 166 kts 28°
2026-04-25 20:59 53.49821 20.96889 1727 ft 210 kts 85°
2026-04-25 21:00 53.49312 20.99391 1993 ft 247 kts 128°
2026-04-25 21:00 53.48935 21.00089 1970 ft 251 kts 145°
2026-04-25 21:00 53.45009 21.00787 1969 ft 250 kts 199°
2026-04-25 21:01 53.42779 20.99871 1954 ft 243 kts 200°
2026-04-25 21:01 53.41710 20.99376 1956 ft 240 kts 203°
2026-04-25 21:01 53.40162 20.98474 1942 ft 236 kts 206°
2026-04-25 21:01 53.38620 20.97510 1958 ft 232 kts 206°
2026-04-25 21:02 53.37272 20.96286 1942 ft 209 kts 232°
2026-04-25 21:02 53.36700 20.94233 1976 ft 189 kts 269°
2026-04-25 21:02 53.37001 20.92219 1967 ft 183 kts 296°
2026-04-25 21:02 53.37811 20.90568 1972 ft 182 kts 317°
2026-04-25 21:03 53.38899 20.89413 1996 ft 184 kts 335°
2026-04-25 21:03 53.40152 20.89023 1980 ft 187 kts 353°
2026-04-25 21:03 53.41415 20.89443 1917 ft 184 kts 15°
2026-04-25 21:03 53.42867 20.90909 1423 ft 179 kts 25°
2026-04-25 21:04 53.43606 20.91491 1204 ft 169 kts 14°
2026-04-25 21:04 53.44717 20.91790 1089 ft 169 kts 359°
2026-04-25 21:04 53.45887 20.91700 1764 ft 172 kts 335°
2026-04-25 21:04 53.46739 20.90418 2486 ft 171 kts 285°
2026-04-25 21:05 53.46697 20.88401 3011 ft 190 kts 250°
2026-04-25 21:05 53.45715 20.86739 2995 ft 226 kts 213°
2026-04-25 21:05 53.44199 20.85960 2971 ft 226 kts 203°
2026-04-25 21:05 53.42166 20.84974 2970 ft 228 kts 206°
2026-04-25 21:06 53.41153 20.84434 2975 ft 232 kts 206°
2026-04-25 21:06 53.39582 20.83814 2969 ft 236 kts 188°
2026-04-25 21:06 53.38043 20.84591 2974 ft 237 kts 149°
2026-04-25 21:06 53.37306 20.85948 2904 ft 237 kts 121°
2026-04-25 21:07 53.37139 20.89422 2565 ft 225 kts 61°
2026-04-25 21:07 53.38103 20.91208 2293 ft 204 kts 17°
2026-04-25 21:07 53.39443 20.91549 2035 ft 193 kts 351°
2026-04-25 21:07 53.40758 20.91499 1780 ft 182 kts 355°
2026-04-25 21:08 53.41967 20.91542 1584 ft 164 kts 354°
2026-04-25 21:08 53.43074 20.91612 1303 ft 153 kts 358°
2026-04-25 21:08 53.44109 20.91640 1079 ft 156 kts 356°
2026-04-25 21:08 53.45157 20.91952 921 ft 149 kts 15°
2026-04-25 21:09 53.47044 20.93131 507 ft 142 kts 15°
2026-04-25 21:09 53.47900 20.93613 457 ft 103 kts 20°
2026-04-25 21:09 53.48558 20.93981 466 ft 45 kts 15°
2026-04-25 21:10 53.48732 20.94074 468 ft 27 kts 21°
2026-04-25 21:10 53.48785 20.94276 468 ft 20 kts 100°
2026-04-25 21:10 53.48748 20.94468 467 ft 9 kts 108°
2026-04-25 21:10 53.48740 20.94507 467 ft 0 kts 111°